Weather History for Claxton, GA

Change the Weather History Date:

Sunday, February 10, 2013

  Actual Average (KSAV) Record (KSAV)
Temperature  
Mean Temperature 53 °F 52 °F  
Max Temperature 73 °F 63 °F 82 °F (1959)
Min Temperature 33 °F 41 °F 19 °F (1971)
Degree Days  
Heating Degree Days 12 13  
Month to date heating degree days 137  
Since 1 July heating degree days 1311  
Cooling Degree Days 0 0  
Month to date cooling degree days 0  
Year to date cooling degree days 3  
Growing Degree Days 3 (Base 50)    
Moisture  
Dew Point 47 °F    
Average Humidity 76    
Maximum Humidity 100    
Minimum Humidity 46    
Precipitation  
Precipitation 0.00 in 0.09 in 1.61 in (1986)
Month to date precipitation 1.03  
Year to date precipitation 4.72  
Sea Level Pressure  
Sea Level Pressure 30.26 in    
Wind  
Wind Speed 4 mph (SE)    
Max Wind Speed 13 mph    
Max Gust Speed 22 mph    
Visibility 10 miles    
Events      
T = Trace of Precipitation, MM = Missing Value Source: NWS Daily Summary

Daily Weather History Graph

Daily Weather History Graph

Search for Another Location

Airport:

Trip Planner

Search our weather history database for the weather conditions in past years. The results will help you decide how hot, cold, wet, or windy it might be!

Date:

Astronomy

Feb. 10, 2013 Rise Set
Actual Time 7:14 AM EST 6:09 PM EST
Civil Twilight 6:49 AM EST 6:34 PM EST
Nautical Twilight 6:20 AM EST 7:03 PM EST
Astronomical Twilight 5:51 AM EST 7:32 PM EST
Moon 7:07 AM EST (2/10) 6:52 PM EST (2/10)
Length of Visible Light 11h 45m
Length of Day
10h 55m
New Moon, 0% of the Moon is Illuminated
Feb 10
New Moon
Feb 17
First Quarter
Feb 25
Full
Mar 4
Last Quarter
Mar 11
New

Hourly Weather History & Observations

Time (EST) Temp. Windchill Dew Point Humidity Pressure Visibility Wind Dir Wind Speed Gust Speed Precip Events Conditions
12:15 AM 37.4 °F - 37.4 °F 100% 30.31 in 10.0 mi Calm Calm - N/A   Clear
12:35 AM 37.4 °F - 37.4 °F 100% 30.31 in 10.0 mi Calm Calm - N/A   Clear
12:55 AM 37.4 °F - 37.4 °F 100% 30.31 in 10.0 mi Calm Calm - N/A   Clear
1:15 AM 35.6 °F - 35.6 °F 100% 30.31 in 10.0 mi Calm Calm - N/A   Clear
1:35 AM 35.6 °F - 35.6 °F 100% 30.31 in 10.0 mi Calm Calm - N/A   Clear
1:55 AM 35.6 °F - 35.6 °F 100% 30.31 in 10.0 mi Calm Calm - N/A   Clear
2:15 AM 35.6 °F - 35.6 °F 100% 30.31 in 10.0 mi Calm Calm - N/A   Clear
2:35 AM 35.6 °F - 35.6 °F 100% 30.32 in 10.0 mi Calm Calm - N/A   Clear
2:55 AM 33.8 °F - 33.8 °F 100% 30.32 in 7.0 mi Calm Calm - N/A   Clear
3:35 AM 35.6 °F - 35.6 °F 100% 30.31 in 10.0 mi Calm Calm - N/A   Clear
3:55 AM 35.6 °F - 35.6 °F 100% 30.31 in 10.0 mi Calm Calm - N/A   Clear
4:15 AM 33.8 °F - 33.8 °F 100% 30.31 in 7.0 mi Calm Calm - N/A   Clear
4:35 AM 33.8 °F - 33.8 °F 100% 30.31 in 10.0 mi Calm Calm - N/A   Clear
4:55 AM 35.6 °F - 35.6 °F 100% 30.31 in 7.0 mi Calm Calm - N/A   Clear
5:15 AM 35.6 °F - 35.6 °F 100% 30.31 in 10.0 mi Calm Calm - N/A   Clear
5:35 AM 35.6 °F - 35.6 °F 100% 30.31 in 7.0 mi Calm Calm - N/A   Clear
5:55 AM 35.6 °F - 35.6 °F 100% 30.31 in 10.0 mi Calm Calm - N/A   Clear
6:15 AM 35.6 °F - 35.6 °F 100% 30.32 in 10.0 mi Calm Calm - N/A   Clear
6:35 AM 37.4 °F 34.9 °F 37.4 °F 100% 30.33 in 10.0 mi ENE 3.5 mph - N/A   Clear
6:55 AM 37.4 °F 34.9 °F 37.4 °F 100% 30.34 in 10.0 mi East 3.5 mph - N/A   Clear
7:15 AM 37.4 °F 34.9 °F 37.4 °F 100% 30.34 in 7.0 mi East 3.5 mph - N/A   Clear
7:35 AM 39.2 °F 35.9 °F 39.2 °F 100% 30.34 in 10.0 mi East 4.6 mph - N/A   Clear
7:55 AM 42.8 °F 40.1 °F 42.8 °F 100% 30.34 in 10.0 mi East 4.6 mph - N/A   Clear
8:15 AM 46.4 °F 44.3 °F 44.6 °F 93% 30.34 in 10.0 mi East 4.6 mph - N/A   Clear
8:35 AM 50.0 °F - 44.6 °F 82% 30.34 in 10.0 mi East 4.6 mph - N/A   Clear
8:55 AM 51.8 °F - 44.6 °F 76% 30.34 in 10.0 mi East 6.9 mph - N/A   Clear
9:15 AM 53.6 °F - 44.6 °F 72% 30.33 in 10.0 mi East 11.5 mph - N/A   Clear
9:35 AM 53.6 °F - 44.6 °F 72% 30.33 in 10.0 mi East 5.8 mph - N/A   Clear
9:55 AM 55.4 °F - 46.4 °F 72% 30.34 in 10.0 mi East 9.2 mph - N/A   Clear
10:15 AM 59.0 °F - 46.4 °F 63% 30.34 in 10.0 mi East 6.9 mph - N/A   Clear
10:35 AM 60.8 °F - 48.2 °F 63% 30.34 in 10.0 mi East 5.8 mph - N/A   Clear
10:55 AM 62.6 °F - 50.0 °F 63% 30.34 in 10.0 mi East 4.6 mph - N/A   Clear
11:15 AM 64.4 °F - 50.0 °F 59% 30.35 in 10.0 mi East 12.7 mph - N/A   Clear
11:35 AM 64.4 °F - 50.0 °F 59% 30.34 in 10.0 mi East 8.1 mph - N/A   Clear
11:55 AM 66.2 °F - 51.8 °F 60% 30.34 in 10.0 mi ESE 6.9 mph - N/A   Clear
12:15 PM 68.0 °F - 51.8 °F 56% 30.32 in 10.0 mi SE 6.9 mph 17.3 mph N/A   Scattered Clouds
12:35 PM 68.0 °F - 51.8 °F 56% 30.31 in 10.0 mi SE 11.5 mph 19.6 mph N/A   Scattered Clouds
12:55 PM 68.0 °F - 51.8 °F 56% 30.30 in 10.0 mi SSE 9.2 mph 16.1 mph N/A   Mostly Cloudy
1:15 PM 69.8 °F - 53.6 °F 56% 30.28 in 10.0 mi ESE 8.1 mph - N/A   Mostly Cloudy
1:35 PM 71.6 °F - 51.8 °F 50% 30.28 in 10.0 mi SE 9.2 mph 18.4 mph N/A   Scattered Clouds
1:55 PM 71.6 °F - 51.8 °F 50% 30.26 in 10.0 mi SE 12.7 mph 20.7 mph N/A   Scattered Clouds
2:15 PM 71.6 °F - 51.8 °F 50% 30.24 in 10.0 mi SSE 5.8 mph 20.7 mph N/A   Scattered Clouds
2:35 PM 71.6 °F - 51.8 °F 50% 30.24 in 10.0 mi SSE 10.4 mph 17.3 mph N/A   Mostly Cloudy
2:55 PM 73.4 °F - 51.8 °F 47% 30.23 in 10.0 mi SE 11.5 mph 19.6 mph N/A   Mostly Cloudy
3:15 PM 71.6 °F - 50.0 °F 46% 30.22 in 10.0 mi SSW 8.1 mph 17.3 mph N/A   Scattered Clouds
3:35 PM 71.6 °F - 51.8 °F 50% 30.22 in 10.0 mi South 10.4 mph 17.3 mph N/A   Scattered Clouds
3:55 PM 69.8 °F - 51.8 °F 53% 30.21 in 10.0 mi SSE 4.6 mph - N/A   Scattered Clouds
4:15 PM 71.6 °F - 51.8 °F 50% 30.21 in 10.0 mi SE 11.5 mph 19.6 mph N/A   Scattered Clouds
4:35 PM 71.6 °F - 51.8 °F 50% 30.21 in 10.0 mi SE 10.4 mph 16.1 mph N/A   Scattered Clouds
4:55 PM 69.8 °F - 53.6 °F 56% 30.21 in 10.0 mi SE 9.2 mph 18.4 mph N/A   Clear
5:15 PM 69.8 °F - 53.6 °F 56% 30.20 in 10.0 mi SE 6.9 mph 21.9 mph N/A   Clear
5:35 PM 68.0 °F - 53.6 °F 60% 30.20 in 10.0 mi SE 9.2 mph 17.3 mph N/A   Clear
5:55 PM 68.0 °F - 53.6 °F 60% 30.20 in 10.0 mi SE 9.2 mph - N/A   Clear
6:15 PM 66.2 °F - 53.6 °F 64% 30.19 in 10.0 mi ESE 3.5 mph - N/A   Clear
6:35 PM 64.4 °F - 53.6 °F 68% 30.18 in 10.0 mi SE 6.9 mph - N/A   Clear
6:55 PM 64.4 °F - 53.6 °F 68% 30.16 in 10.0 mi SE 6.9 mph - N/A   Clear
7:15 PM 64.4 °F - 55.4 °F 73% 30.15 in 10.0 mi SE 6.9 mph - N/A   Clear
7:35 PM 64.4 °F - 55.4 °F 73% 30.17 in 10.0 mi SE 8.1 mph - N/A   Clear
7:55 PM 64.4 °F - 55.4 °F 73% 30.18 in 10.0 mi SE 4.6 mph - N/A   Clear
8:15 PM 64.4 °F - 55.4 °F 73% 30.18 in 10.0 mi SSE 5.8 mph - N/A   Clear
8:35 PM 64.4 °F - 55.4 °F 73% 30.18 in 10.0 mi SSE 5.8 mph - N/A   Clear
8:55 PM 64.4 °F - 55.4 °F 73% 30.16 in 10.0 mi SE 6.9 mph - N/A   Clear
9:15 PM 64.4 °F - 55.4 °F 73% 30.17 in 10.0 mi SSE 6.9 mph - N/A   Clear
9:35 PM 64.4 °F - 55.4 °F 73% 30.17 in 10.0 mi SSE 4.6 mph - N/A   Clear
9:55 PM 64.4 °F - 55.4 °F 73% 30.16 in 10.0 mi SE 5.8 mph - N/A   Clear
10:15 PM 64.4 °F - 55.4 °F 73% 30.16 in 10.0 mi SSE 6.9 mph - N/A   Clear
10:35 PM 64.4 °F - 55.4 °F 73% 30.17 in 10.0 mi SSE 4.6 mph - N/A   Clear
10:55 PM 64.4 °F - 57.2 °F 77% 30.17 in 10.0 mi SSE 5.8 mph - N/A   Clear
11:15 PM 64.4 °F - 57.2 °F 77% 30.18 in 10.0 mi South 5.8 mph - N/A   Clear
11:35 PM 64.4 °F - 57.2 °F 77% 30.16 in 10.0 mi SSE 5.8 mph - N/A   Scattered Clouds
11:55 PM 64.4 °F - 57.2 °F 77% 30.15 in 10.0 mi SE 6.9 mph - N/A   Scattered Clouds